Home > Weather > Selkirk > Past weeks

Flag for Canada Weather for the Past 2 Weeks in Selkirk, Manitoba, Canada

Now
54 °F

Cool.


Feels Like: 52 °F
Forecast: 44 / 57 °F
Wind: 7 mph from North

Location: Winnipeg The Forks Man

Current Time: May 3, 2016 at 9:57:34 AM

Latest Report: May 3, 2016 at 9:00 AM


Visibility: N/A

Pressure: 29.90 "Hg

Humidity: 42%

Dew Point: 32 °F

Location of SelkirkLocation

Historic Weather in Selkirk — Graph

°F

Selkirk Temperature Yesterday

Maximum temperature yesterday: 72 °F (at 5:00 PM)
Minimum temperature yesterday: 51 °F (at 4:00 AM)
Average temperature yesterday: 61 °F

High & Low Weather Summary for the Past Weeks

 TemperatureHumidityPressure
High72 °F (May 2, 5:00 PM)94% (Apr 20, 7:00 AM)30.55 "Hg (Apr 20, 7:00 AM)
Low29 °F (Apr 22, 6:00 AM)17% (Apr 28, 2:00 PM)29.79 "Hg (May 3, 4:00 AM)
Average49 °F44%30.14 "Hg
* Reported Apr 18 8:00 AM — May 3 8:00 AM, Selkirk, Weather by CustomWeather, © 2016

Note: Actual official high and low records may vary slightly from our data, if they occured in-between our weather recording intervals... More about our weather records

Advertising

Selkirk Weather History for the Previous 24 Hours

Scroll right to see more
 ConditionsComfort  
Time TempWeatherWind HumidityBarometerVisibility
8:00 AM
Tue, May 3
52 °FCool.8 mph47%29.88 "HgN/A
7:00 AM50 °FCool.7 mph53%29.87 "HgN/A
6:00 AM52 °FCool.8 mph54%29.83 "HgN/A
5:00 AM54 °FCool.6 mph48%29.81 "HgN/A
4:00 AM59 °FRefreshingly cool.6 mph41%29.79 "HgN/A
3:00 AM59 °FRefreshingly cool.3 mph40%29.81 "HgN/A
2:00 AM60 °FRefreshingly cool.6 mph37%29.83 "HgN/A
1:00 AM60 °FRefreshingly cool.3 mph36%29.85 "HgN/A
12:00 AM62 °FRefreshingly cool.3 mph34%29.86 "HgN/A
11:00 PM
Mon, May 2
62 °FRefreshingly cool.2 mph37%29.88 "HgN/A
10:00 PM62 °FMild.1 mph38%29.90 "HgN/A
9:00 PM64 °FMild.2 mph32%29.91 "HgN/A
8:00 PM68 °FMild.3 mph28%29.91 "HgN/A
7:00 PM69 °FMild.3 mph25%29.92 "HgN/A
6:00 PM71 °FMild.3 mph19%29.93 "HgN/A
5:00 PM72 °FMild.5 mph19%29.94 "HgN/A
4:00 PM71 °FMild.2 mph19%29.96 "HgN/A
3:00 PM71 °FMild.5 mph20%29.98 "HgN/A
2:00 PM67 °FMild.3 mph23%29.99 "HgN/A
1:00 PM68 °FMild.1 mph22%30.01 "HgN/A
12:00 PM66 °FMild.3 mph22%30.03 "HgN/A
11:00 AM63 °FMild.3 mph32%30.03 "HgN/A
10:00 AM60 °FRefreshingly cool.3 mph33%30.04 "HgN/A
9:00 AM59 °FRefreshingly cool.1 mph35%30.04 "HgN/A
Weather by CustomWeather, © 2016

See weather overviewHow to use our weather pages